This demonstration page uses our WeatherBlox Daily Observations layout. Learn more.

Left ArrowRight Arrow

39.51506, -84.39828

Hourly Observations for April 10, 2018

Temp ( °F °C ) Dew Point ( °F °C ) Humidity (%) Winds ( mph kmh ) Pressure ( in mb ) Visibility ( mi km ) Precip ( " mm )
12:15 am 00:15 Cloudy 36 2.3 32 0.2 86 86 N 3 6 30.27 1025 10 16 0.00 0.00
12:35 am 00:35 Cloudy 36 2.3 32 0.2 86 86 N 3 6 30.27 1025 10 16 0.00 0.00
12:55 am 00:55 Cloudy 36 2.3 32 0 85 85 Calm 30.27 1025 10 16 0.00 0.00
1:15 am 01:15 Cloudy 36 2.2 32 0.2 87 87 Calm 30.27 1025 10 16 0.00 0.00
1:35 am 01:35 Cloudy 35 1.6 32 -0.1 89 89 N 3 6 30.27 1025 10 16 0.00 0.00
1:55 am 01:55 Cloudy 35 1.4 32 0 91 91 Calm 30.27 1025 10 16 0.00 0.00
2:15 am 02:15 Partly Cloudy 34 0.9 32 -0.1 93 93 Calm 30.27 1025 10 16 0.00 0.00
2:35 am 02:35 Clear 33 0.4 31 -0.3 95 95 Calm 30.27 1025 7 11 0.00 0.00
2:55 am 02:55 Clear with Mist and Fog 31 -0.3 31 -0.7 97 97 Calm 30.27 1025 5 8 0.00 0.00
3:15 am 03:15 Clear with Mist and Fog 30 -1 29 -1.5 96 96 Calm 30.27 1025 5 8 0.00 0.00
3:35 am 03:35 Partly Cloudy with Mist and Fog 29 -1.6 28 -2 97 97 Calm 30.27 1025 5 8 0.00 0.00
3:55 am 03:55 Clear with Mist and Fog 29 -1.8 28 -2.2 97 97 Calm 30.27 1025 5 8 0.00 0.00
4:15 am 04:15 Clear with Mist and Fog 29 -1.7 28 -2.2 96 96 Calm 30.27 1025 5 8 0.00 0.00
4:35 am 04:35 Clear with Mist and Fog 28 -2 28 -2.5 96 96 Calm 30.27 1025 5 8 0.00 0.00
4:55 am 04:55 Clear with Mist and Fog 29 -1.9 28 -2.2 98 98 Calm 30.27 1025 5 8 0.00 0.00
5:15 am 05:15 Mostly Cloudy with Mist and Fog 28 -2.5 27 -2.7 99 99 Calm 30.30 1026 1 2 0.00 0.00
5:35 am 05:35 Mostly Cloudy with Mist and Fog 28 -2.1 28 -2.3 99 99 Calm 30.30 1026 1 1 0.00 0.00
5:55 am 05:55 Clear with Mist and Fog 27 -3 26 -3.2 99 99 Calm 30.30 1026 5 8 0.00 0.00
6:15 am 06:15 Mostly Cloudy with Mist and Fog 27 -2.9 26 -3.2 98 98 Calm 30.30 1026 4 6 0.00 0.00
6:35 am 06:35 Partly Cloudy with Mist and Fog 27 -3 26 -3.3 98 98 Calm 30.30 1026 4 6 0.00 0.00
6:55 am 06:55 Mostly Cloudy with Mist and Fog 27 -2.8 26 -3.3 96 96 Calm 30.30 1026 5 8 0.00 0.00
7:15 am 07:15 Sunny with Mist and Fog 27 -2.8 26 -3.5 95 95 Calm 30.30 1026 4 6 0.00 0.00
7:35 am 07:35 Sunny with Mist and Fog 26 -3.1 26 -3.6 96 96 Calm 30.33 1027 4 6 0.00 0.00
7:55 am 07:55 Sunny with Mist and Fog 27 -2.8 26 -3.4 96 96 Calm 30.33 1027 4 6 0.00 0.00
8:15 am 08:15 Sunny with Mist and Fog 29 -1.9 28 -2.5 96 96 Calm 30.33 1027 4 6 0.00 0.00
8:35 am 08:35 Cloudy with Freezing Fog 29 -1.9 28 -2.1 99 99 Calm 30.33 1027 5 8 0.00 0.00
8:55 am 08:55 Cloudy with Freezing Fog 30 -1.2 29 -1.4 99 99 Calm 30.33 1027 5 8 0.00 0.00
9:15 am 09:15 Sunny with Mist and Fog 33 0.3 31 -0.4 95 95 Calm 30.33 1027 5 8 0.00 0.00
9:35 am 09:35 Sunny with Mist and Fog 35 1.7 32 0.1 89 89 Calm 30.36 1028 7 11 0.00 0.00
9:55 am 09:55 Sunny 38 3.2 32 -0.1 79 79 NE 3 6 30.33 1027 10 16 0.00 0.00
10:15 am 10:15 Cloudy 39 4 31 -0.7 72 72 NNW 6 9 30.33 1027 10 16 0.00 0.00
10:35 am 10:35 Cloudy 39 4.1 29 -1.9 65 65 Calm 30.33 1027 10 16 0.00 0.00
10:55 am 10:55 Cloudy 40 4.5 29 -1.8 64 64 Calm 30.33 1027 10 16 0.00 0.00
11:15 am 11:15 Mostly Cloudy 43 6 29 -1.7 58 58 Calm 30.33 1027 10 16 0.00 0.00
11:35 am 11:35 Cloudy 41 5.1 27 -2.7 57 57 NNW 6 9 30.33 1027 10 16 0.00 0.00
11:55 am 11:55 Cloudy 42 5.3 26 -3.2 55 55 W 5 7 30.33 1027 10 16 0.00 0.00
12:15 pm 12:15 Cloudy 42 5.6 26 -3.2 54 54 WNW 6 9 30.33 1027 10 16 0.00 0.00
12:35 pm 12:35 Cloudy 42 5.4 25 -3.7 52 52 W 3 6 30.33 1027 10 16 0.00 0.00
12:55 pm 12:55 Cloudy 42 5.8 27 -2.9 54 54 WNW 5 7 30.33 1027 10 16 0.00 0.00
1:15 pm 13:15 Cloudy 42 5.5 28 -2.5 57 57 Calm 30.33 1027 10 16 0.00 0.00
1:35 pm 13:35 Cloudy 43 5.9 28 -2.4 56 56 WSW 3 6 30.30 1026 10 16 0.00 0.00
1:55 pm 13:55 Cloudy 42 5.8 26 -3.2 53 53 WNW 6 9 30.30 1026 10 16 0.00 0.00
2:15 pm 14:15 Cloudy 44 6.5 26 -3.5 49 49 W 6 9 30.27 1025 10 16 0.00 0.00
2:35 pm 14:35 Cloudy 44 6.6 26 -3.3 50 50 W 6 9 30.27 1025 10 16 0.00 0.00
2:55 pm 14:55 Cloudy 44 6.5 26 -3.6 49 49 WSW 5 7 30.24 1024 10 16 0.00 0.00
3:15 pm 15:15 Cloudy 44 6.6 26 -3.6 48 48 WSW 5 7 30.24 1024 10 16 0.00 0.00
3:35 pm 15:35 Cloudy 44 6.8 25 -3.8 47 47 WSW 7 11 30.24 1024 10 16 0.00 0.00
3:55 pm 15:55 Cloudy 44 6.9 26 -3.1 49 49 W 9 15 30.24 1024 10 16 0.00 0.00
4:15 pm 16:15 Cloudy 44 6.8 26 -3.6 48 48 W 8 13 30.24 1024 10 16 0.00 0.00
4:35 pm 16:35 Cloudy 44 6.9 26 -3.4 48 48 WSW 7 11 30.24 1024 10 16 0.00 0.00
4:55 pm 16:55 Cloudy 44 6.7 25 -3.7 48 48 WSW 5 7 30.24 1024 10 16 0.00 0.00
5:15 pm 17:15 Cloudy 44 6.7 26 -3.4 49 49 WNW 8 13 30.24 1024 10 16 0.00 0.00
5:35 pm 17:35 Cloudy 44 6.6 25 -3.7 48 48 W 7 11 30.24 1024 10 16 0.00 0.00
5:55 pm 17:55 Cloudy 44 6.6 25 -3.8 48 48 W 9 15 30.24 1024 10 16 0.00 0.00
6:15 pm 18:15 Cloudy 44 6.5 25 -3.8 48 48 W 8 13 30.21 1023 10 16 0.00 0.00
6:35 pm 18:35 Cloudy 44 6.4 26 -3.6 49 49 W 6 9 30.21 1023 10 16 0.00 0.00
6:55 pm 18:55 Cloudy 43 6.1 26 -3.6 50 50 W 6 9 30.21 1023 10 16 0.00 0.00
7:15 pm 19:15 Cloudy 43 6 25 -3.8 50 50 WNW 6 9 30.21 1023 10 16 0.00 0.00
7:35 pm 19:35 Cloudy 42 5.8 26 -3.3 52 52 W 3 6 30.21 1023 10 16 0.00 0.00
7:55 pm 19:55 Cloudy 42 5.6 26 -3.4 53 53 WNW 5 7 30.21 1023 10 16 0.00 0.00
8:15 pm 20:15 Cloudy 42 5.3 26 -3.2 55 55 W 5 7 30.24 1024 10 16 0.00 0.00
8:30 pm 20:30 Cloudy 41 5.1 26 -3.3 55 55 Calm 30.24 1024 10 16 0.00 0.00
8:55 pm 20:55 Cloudy 40 4.6 26 -3.2 57 57 SW 3 6 30.24 1024 10 16 0.00 0.00
9:15 pm 21:15 Cloudy 40 4.3 27 -2.6 61 61 WSW 3 6 30.24 1024 10 16 0.00 0.00
9:35 pm 21:35 Cloudy 40 4.3 29 -1.9 64 64 Calm 30.24 1024 10 16 0.00 0.00
9:55 pm 21:55 Cloudy 39 3.9 29 -1.4 69 69 Calm 30.24 1024 10 16 0.00 0.00
10:15 pm 22:15 Partly Cloudy 38 3.2 30 -1 74 74 Calm 30.24 1024 10 16 0.00 0.00
10:35 pm 22:35 Clear 35 1.7 30 -1.1 82 82 Calm 30.24 1024 10 16 0.00 0.00
10:55 pm 22:55 Clear 33 0.8 29 -1.6 84 84 Calm 30.24 1024 10 16 0.00 0.00

Powered by AerisWeather